When you browse on this site, cookies collect data to enhance your experience and personalize the content and advertising you see.
Visit our Privacy Policy to learn more. By continuing to use the site, you agree to this use of cookies and data.
  • In Romania
  • List of Countries
  • For 7 days
  • Water Temperature
  • Weather Map
  • Weather Widgets
  • user-avatar
    Login

    Hourly Weather Kalyan

    Today, 6 April, Monday

    Time Temperature Precipitation Wind Pressure Humidity
    00:00 +26°C° 0 mm 0 mps 757 mmHg 57%
    01:00 +25°C° 0 mm 0 mps 757 mmHg 59%
    02:00 +25°C° 0 mm 0 mps 756 mmHg 62%
    03:00 +27°C° 0 mm 1 mps 756 mmHg 63%
    04:00 +26°C° 0 mm 1 mps 756 mmHg 65%
    05:00 +26°C° 0 mm 1 mps 757 mmHg 71%
    06:00 +27°C° 0 mm 1 mps 757 mmHg 67%
    07:00 +29°C° 0 mm 1 mps 758 mmHg 63%
    08:00 +28°C° 0 mm 0 mps 758 mmHg 59%
    09:00 +33°C° 0 mm 1 mps 758 mmHg 49%
    10:00 +36°C° 0 mm 2 mps 758 mmHg 39%
    11:00 +39°C° 0 mm 2 mps 758 mmHg 29%
    12:00 +39°C° 0 mm 3 mps 757 mmHg 29%
    13:00 +40°C° 0 mm 4 mps 756 mmHg 30%
    14:00 +41°C° 0 mm 5 mps 756 mmHg 31%
    15:00 +40°C° 0 mm 5 mps 755 mmHg 33%
    16:00 +37°C° 0 mm 4 mps 755 mmHg 35%
    17:00 +36°C° 0 mm 4 mps 754 mmHg 37%
    18:00 +34°C° 0 mm 3 mps 755 mmHg 45%
    19:00 +31°C° 0 mm 2 mps 756 mmHg 54%
    20:00 +29°C° 0 mm 2 mps 756 mmHg 63%
    21:00 +29°C° 0 mm 1 mps 756 mmHg 66%
    22:00 +28°C° 0 mm 1 mps 756 mmHg 69%
    23:00 +27°C° 0 mm 1 mps 757 mmHg 72%

    Tomorrow, 7 April, Tuesday

    Time Temperature Precipitation Wind Pressure Humidity
    00:00 +27°C° 0 mm 1 mps 756 mmHg 73%
    01:00 +27°C° 0 mm 1 mps 756 mmHg 75%
    02:00 +26°C° 0 mm 1 mps 755 mmHg 77%
    03:00 +26°C° 0 mm 1 mps 755 mmHg 77%
    04:00 +26°C° 0 mm 1 mps 755 mmHg 78%
    05:00 +25°C° 0 mm 1 mps 755 mmHg 79%
    06:00 +27°C° 0 mm 1 mps 756 mmHg 72%
    07:00 +28°C° 0 mm 1 mps 756 mmHg 65%
    08:00 +29°C° 0 mm 1 mps 757 mmHg 59%
    09:00 +32°C° 0 mm 1 mps 757 mmHg 48%
    10:00 +36°C° 0 mm 2 mps 757 mmHg 37%
    11:00 +38°C° 0 mm 2 mps 756 mmHg 27%
    12:00 +38°C° 0 mm 4 mps 756 mmHg 27%
    13:00 +40°C° 0 mm 5 mps 755 mmHg 27%
    14:00 +40°C° 0 mm 6 mps 755 mmHg 27%
    15:00 +39°C° 0 mm 5 mps 754 mmHg 29%
    16:00 +37°C° 0 mm 5 mps 754 mmHg 31%
    17:00 +36°C° 0 mm 4 mps 754 mmHg 33%
    18:00 +34°C° 0 mm 3 mps 754 mmHg 40%
    19:00 +31°C° 0 mm 2 mps 755 mmHg 47%
    20:00 +29°C° 0 mm 1 mps 756 mmHg 54%
    21:00 +28°C° 0 mm 1 mps 756 mmHg 58%
    22:00 +27°C° 0 mm 1 mps 756 mmHg 61%
    23:00 +27°C° 0 mm 1 mps 756 mmHg 65%

    Day after tomorrow, 8 April, Wednesday

    Time Temperature Precipitation Wind Pressure Humidity
    00:00 +26°C° 0 mm 1 mps 756 mmHg 67%
    01:00 +26°C° 0 mm 1 mps 756 mmHg 69%
    02:00 +23°C° 0 mm 0 mps 755 mmHg 71%
    03:00 +23°C° 0 mm 0 mps 755 mmHg 72%
    04:00 +23°C° 0 mm 0 mps 755 mmHg 73%
    05:00 +22°C° 0 mm 0 mps 756 mmHg 73%
    06:00 +24°C° 0 mm 0 mps 756 mmHg 67%
    07:00 +25°C° 0 mm 0 mps 757 mmHg 61%
    08:00 +27°C° 0 mm 0 mps 757 mmHg 55%
    09:00 +31°C° 0 mm 1 mps 757 mmHg 47%
    10:00 +35°C° 0 mm 2 mps 757 mmHg 38%
    11:00 +37°C° 0 mm 3 mps 757 mmHg 30%
    12:00 +38°C° 0 mm 4 mps 757 mmHg 28%
    13:00 +39°C° 0 mm 5 mps 756 mmHg 27%
    14:00 +40°C° 0 mm 6 mps 755 mmHg 25%
    15:00 +39°C° 0 mm 6 mps 755 mmHg 28%
    16:00 +38°C° 0 mm 6 mps 755 mmHg 31%
    17:00 +36°C° 0 mm 5 mps 754 mmHg 34%
    18:00 +33°C° 0 mm 4 mps 755 mmHg 45%
    19:00 +30°C° 0 mm 3 mps 756 mmHg 56%
    20:00 +28°C° 0 mm 1 mps 756 mmHg 67%
    21:00 +28°C° 0 mm 1 mps 757 mmHg 69%
    22:00 +27°C° 0 mm 1 mps 757 mmHg 72%
    23:00 +25°C° 0 mm 0 mps 757 mmHg 75%

    9 April, Thursday

    Time Temperature Precipitation Wind Pressure Humidity
    00:00 +24°C° 0 mm 0 mps 757 mmHg 77%
    01:00 +24°C° 0 mm 0 mps 756 mmHg 78%
    02:00 +24°C° 0 mm 0 mps 756 mmHg 80%
    03:00 +24°C° 0 mm 0 mps 756 mmHg 81%
    04:00 +23°C° 0 mm 0 mps 756 mmHg 82%
    05:00 +23°C° 0 mm 0 mps 756 mmHg 83%
    06:00 +24°C° 0 mm 0 mps 756 mmHg 77%
    07:00 +26°C° 0 mm 0 mps 757 mmHg 70%
    08:00 +27°C° 0 mm 0 mps 758 mmHg 64%
    09:00 +31°C° 0 mm 1 mps 757 mmHg 53%
    10:00 +35°C° 0 mm 2 mps 757 mmHg 41%
    11:00 +37°C° 0 mm 3 mps 757 mmHg 30%
    12:00 +38°C° 0 mm 3 mps 756 mmHg 28%
    13:00 +40°C° 0 mm 4 mps 755 mmHg 27%
    14:00 +41°C° 0 mm 5 mps 755 mmHg 25%
    15:00 +40°C° 0 mm 5 mps 754 mmHg 29%
    16:00 +37°C° 0 mm 5 mps 754 mmHg 33%
    17:00 +36°C° 0 mm 4 mps 754 mmHg 37%
    18:00 +34°C° 0 mm 3 mps 755 mmHg 45%
    19:00 +31°C° 0 mm 2 mps 755 mmHg 52%
    20:00 +29°C° 0 mm 1 mps 756 mmHg 60%
    21:00 +28°C° 0 mm 1 mps 756 mmHg 64%
    22:00 +27°C° 0 mm 1 mps 756 mmHg 68%
    23:00 +27°C° 0 mm 1 mps 757 mmHg 72%

    10 April, Friday

    Time Temperature Precipitation Wind Pressure Humidity
    00:00 +26°C° 0 mm 1 mps 756 mmHg 74%
    01:00 +26°C° 0 mm 1 mps 756 mmHg 76%
    02:00 +25°C° 0 mm 1 mps 755 mmHg 77%
    03:00 +25°C° 0 mm 1 mps 755 mmHg 77%
    04:00 +25°C° 0 mm 1 mps 755 mmHg 78%
    05:00 +24°C° 0 mm 1 mps 755 mmHg 78%
    06:00 +26°C° 0 mm 1 mps 756 mmHg 70%
    07:00 +28°C° 0 mm 1 mps 756 mmHg 62%
    08:00 +29°C° 0 mm 1 mps 757 mmHg 54%
    09:00 +32°C° 0 mm 1 mps 757 mmHg 44%
    10:00 +36°C° 0 mm 2 mps 757 mmHg 34%
    11:00 +40°C° 0 mm 2 mps 757 mmHg 24%
    12:00 +42°C° 0 mm 3 mps 756 mmHg 23%
    13:00 +43°C° 0 mm 3 mps 755 mmHg 22%
    14:00 +44°C° 0 mm 4 mps 754 mmHg 21%
    15:00 +42°C° 0 mm 4 mps 754 mmHg 25%
    16:00 +41°C° 0 mm 4 mps 753 mmHg 29%
    17:00 +38°C° 0 mm 4 mps 753 mmHg 33%
    18:00 +36°C° 0 mm 3 mps 754 mmHg 39%
    19:00 +34°C° 0 mm 2 mps 754 mmHg 44%
    20:00 +31°C° 0 mm 1 mps 755 mmHg 50%
    21:00 +30°C° 0 mm 1 mps 755 mmHg 51%
    22:00 +29°C° 0 mm 1 mps 756 mmHg 52%
    23:00 +29°C° 0 mm 1 mps 756 mmHg 53%

    11 April, Saturday

    Time Temperature Precipitation Wind Pressure Humidity
    00:00 +28°C° 0 mm 1 mps 756 mmHg 55%
    01:00 +28°C° 0 mm 1 mps 755 mmHg 57%
    02:00 +27°C° 0 mm 1 mps 755 mmHg 58%
    03:00 +27°C° 0 mm 1 mps 755 mmHg 58%
    04:00 +26°C° 0 mm 1 mps 755 mmHg 58%
    05:00 +26°C° 0 mm 1 mps 755 mmHg 58%
    06:00 +28°C° 0 mm 1 mps 756 mmHg 51%
    07:00 +30°C° 0 mm 1 mps 756 mmHg 43%
    08:00 +32°C° 0 mm 1 mps 757 mmHg 35%
    09:00 +36°C° 0 mm 2 mps 757 mmHg 28%
    10:00 +40°C° 0 mm 2 mps 757 mmHg 20%
    11:00 +43°C° 0 mm 2 mps 757 mmHg 13%
    12:00 +45°C° 0 mm 3 mps 756 mmHg 13%
    13:00 +46°C° 0 mm 3 mps 755 mmHg 12%
    14:00 +48°C° 0 mm 4 mps 754 mmHg 12%
    15:00 +47°C° 0 mm 4 mps 753 mmHg 13%
    16:00 +46°C° 0 mm 5 mps 753 mmHg 14%
    17:00 +45°C° 0 mm 6 mps 752 mmHg 15%
    18:00 +41°C° 0 mm 4 mps 753 mmHg 18%
    19:00 +38°C° 0 mm 2 mps 754 mmHg 20%
    20:00 +35°C° 0 mm 1 mps 754 mmHg 22%
    21:00 +34°C° 0 mm 1 mps 755 mmHg 25%
    22:00 +33°C° 0 mm 1 mps 755 mmHg 27%
    23:00 +32°C° 0 mm 1 mps 755 mmHg 30%
    Show more